• în România
  • Lista ţărilor
  • Pe 7 zile
  • Temperatura apei
  • Hartă satelitară
  • Meteo pe hartă
  • Widget-uri
  • user-avatar
    Intrare

    Meteo pe oră la Innsbruck

    Astăzi, 24 Octombrie, Miercuri

    Timp Temperatura Precipitaţii Vânt Presiune Umiditate
    00:00 0°C° 0.1 mm 3 m/s 598 mmHg 64%
    01:00 0°C° 0.1 mm 3 m/s 598 mmHg 65%
    02:00 0°C° 0.2 mm 3 m/s 597 mmHg 67%
    03:00 0°C° 0.2 mm 3 m/s 597 mmHg 69%
    04:00 0°C° 0.2 mm 3 m/s 597 mmHg 71%
    05:00 0°C° 0.5 mm 3 m/s 597 mmHg 75%
    06:00 0°C° 0.5 mm 3 m/s 596 mmHg 78%
    07:00 0°C° 0.5 mm 3 m/s 596 mmHg 82%
    08:00 0°C° 1.1 mm 3 m/s 596 mmHg 84%
    09:00 +1°C° 1.1 mm 3 m/s 597 mmHg 86%
    10:00 +1°C° 1.1 mm 3 m/s 597 mmHg 87%
    11:00 +2°C° 1.5 mm 3 m/s 597 mmHg 88%
    12:00 +2°C° 1.5 mm 3 m/s 597 mmHg 88%
    13:00 +2°C° 1.5 mm 3 m/s 597 mmHg 89%
    14:00 +2°C° 1.3 mm 3 m/s 597 mmHg 89%
    15:00 +2°C° 1.3 mm 3 m/s 597 mmHg 90%
    16:00 +2°C° 1.3 mm 3 m/s 597 mmHg 91%
    17:00 +2°C° 0.9 mm 3 m/s 597 mmHg 92%
    18:00 +2°C° 0.9 mm 3 m/s 597 mmHg 93%
    19:00 +1°C° 0.9 mm 3 m/s 597 mmHg 95%
    20:00 +1°C° 0.6 mm 3 m/s 598 mmHg 95%
    21:00 +1°C° 0.6 mm 3 m/s 598 mmHg 95%
    22:00 +2°C° 0.6 mm 2 m/s 598 mmHg 96%
    23:00 +2°C° 0.3 mm 2 m/s 598 mmHg 96%

    Mâine, 25 Octombrie, Joi

    Timp Temperatura Precipitaţii Vânt Presiune Umiditate
    00:00 +2°C° 0.3 mm 2 m/s 598 mmHg 96%
    01:00 +2°C° 0.3 mm 2 m/s 598 mmHg 96%
    02:00 +2°C° 0.1 mm 2 m/s 598 mmHg 96%
    03:00 +2°C° 0.1 mm 2 m/s 597 mmHg 96%
    04:00 +2°C° 0.1 mm 1 m/s 597 mmHg 96%
    05:00 +1°C° 0 mm 2 m/s 597 mmHg 95%
    06:00 -1°C° 0 mm 2 m/s 597 mmHg 95%
    07:00 -2°C° 0 mm 2 m/s 596 mmHg 94%
    08:00 +3°C° 0 mm 1 m/s 597 mmHg 86%
    09:00 +5°C° 0 mm 1 m/s 598 mmHg 77%
    10:00 +7°C° 0 mm 1 m/s 599 mmHg 69%
    11:00 +8°C° 0 mm 1 m/s 599 mmHg 63%
    12:00 +9°C° 0 mm 1 m/s 599 mmHg 57%
    13:00 +9°C° 0 mm 2 m/s 599 mmHg 51%
    14:00 +9°C° 0 mm 2 m/s 598 mmHg 56%
    15:00 +8°C° 0 mm 2 m/s 598 mmHg 60%
    16:00 +8°C° 0 mm 1 m/s 597 mmHg 65%
    17:00 +6°C° 0 mm 1 m/s 596 mmHg 72%
    18:00 +4°C° 0 mm 1 m/s 595 mmHg 79%
    19:00 +2°C° 0 mm 1 m/s 595 mmHg 86%
    20:00 +2°C° 0 mm 1 m/s 595 mmHg 85%
    21:00 +1°C° 0 mm 1 m/s 594 mmHg 84%
    22:00 +1°C° 0 mm 1 m/s 594 mmHg 83%
    23:00 +1°C° 0 mm 1 m/s 594 mmHg 81%

    Poimâine, 26 Octombrie, Vineri

    Timp Temperatura Precipitaţii Vânt Presiune Umiditate
    00:00 +1°C° 0 mm 1 m/s 594 mmHg 79%
    01:00 0°C° 0 mm 1 m/s 593 mmHg 77%
    02:00 0°C° 0 mm 1 m/s 593 mmHg 75%
    03:00 0°C° 0 mm 1 m/s 592 mmHg 72%
    04:00 0°C° 0 mm 1 m/s 592 mmHg 70%
    05:00 0°C° 0 mm 1 m/s 592 mmHg 68%
    06:00 0°C° 0 mm 1 m/s 592 mmHg 66%
    07:00 0°C° 0 mm 1 m/s 591 mmHg 64%
    08:00 +3°C° 0 mm 1 m/s 592 mmHg 59%
    09:00 +5°C° 0 mm 1 m/s 593 mmHg 54%
    10:00 +8°C° 0 mm 1 m/s 594 mmHg 49%
    11:00 +9°C° 0 mm 1 m/s 594 mmHg 47%
    12:00 +9°C° 0 mm 1 m/s 594 mmHg 45%
    13:00 +10°C° 0 mm 1 m/s 594 mmHg 43%
    14:00 +9°C° 0 mm 1 m/s 594 mmHg 48%
    15:00 +8°C° 0 mm 1 m/s 593 mmHg 54%
    16:00 +8°C° 0 mm 1 m/s 592 mmHg 59%
    17:00 +5°C° 0 mm 1 m/s 592 mmHg 67%
    18:00 +3°C° 0 mm 1 m/s 591 mmHg 75%
    19:00 +1°C° 0 mm 1 m/s 590 mmHg 83%
    20:00 +1°C° 0 mm 1 m/s 590 mmHg 85%
    21:00 +1°C° 0 mm 1 m/s 590 mmHg 87%
    22:00 +1°C° 0 mm 1 m/s 590 mmHg 89%
    23:00 +1°C° 0.1 mm 1 m/s 590 mmHg 91%

    27 Octombrie, Sâmbătă

    Timp Temperatura Precipitaţii Vânt Presiune Umiditate
    00:00 +1°C° 0.1 mm 1 m/s 590 mmHg 93%
    01:00 +1°C° 0.1 mm 1 m/s 590 mmHg 95%
    02:00 +1°C° 0.5 mm 1 m/s 590 mmHg 95%
    03:00 +1°C° 0.5 mm 1 m/s 590 mmHg 95%
    04:00 +1°C° 0.5 mm 1 m/s 589 mmHg 96%
    05:00 +1°C° 1.1 mm 1 m/s 589 mmHg 96%
    06:00 0°C° 1.1 mm 1 m/s 589 mmHg 95%
    07:00 0°C° 1.1 mm 1 m/s 588 mmHg 95%
    08:00 0°C° 1.7 mm 1 m/s 588 mmHg 95%
    09:00 -2°C° 1.7 mm 2 m/s 588 mmHg 95%
    10:00 -2°C° 1.7 mm 2 m/s 588 mmHg 94%
    11:00 -2°C° 1.8 mm 2 m/s 588 mmHg 94%
    12:00 -3°C° 1.8 mm 2 m/s 587 mmHg 94%
    13:00 -3°C° 1.8 mm 2 m/s 587 mmHg 95%
    14:00 -3°C° 1.6 mm 2 m/s 587 mmHg 95%
    15:00 -4°C° 1.6 mm 2 m/s 586 mmHg 95%
    16:00 -4°C° 1.6 mm 2 m/s 586 mmHg 96%
    17:00 -4°C° 1.5 mm 2 m/s 586 mmHg 96%
    18:00 -5°C° 1.5 mm 2 m/s 586 mmHg 96%
    19:00 -5°C° 1.5 mm 2 m/s 586 mmHg 96%
    20:00 -6°C° 0.9 mm 2 m/s 586 mmHg 96%
    21:00 -4°C° 0.9 mm 1 m/s 585 mmHg 96%
    22:00 -4°C° 0.9 mm 1 m/s 585 mmHg 96%
    23:00 -4°C° 0.9 mm 1 m/s 585 mmHg 96%

    28 Octombrie, Duminică

    Timp Temperatura Precipitaţii Vânt Presiune Umiditate
    00:00 -4°C° 0.9 mm 1 m/s 584 mmHg 96%
    01:00 -4°C° 0.9 mm 1 m/s 584 mmHg 96%
    02:00 -4°C° 1.3 mm 1 m/s 584 mmHg 96%
    03:00 -4°C° 1.3 mm 1 m/s 583 mmHg 96%
    04:00 -4°C° 1.3 mm 1 m/s 583 mmHg 96%
    05:00 -4°C° 1.5 mm 1 m/s 583 mmHg 96%
    06:00 -3°C° 1.5 mm 1 m/s 583 mmHg 97%
    07:00 -3°C° 1.5 mm 1 m/s 582 mmHg 97%
    08:00 -3°C° 1.6 mm 1 m/s 583 mmHg 97%
    09:00 -2°C° 1.6 mm 1 m/s 583 mmHg 97%
    10:00 -4°C° 1.6 mm 2 m/s 583 mmHg 97%
    11:00 -3°C° 1.1 mm 2 m/s 583 mmHg 97%
    12:00 -3°C° 1.1 mm 2 m/s 583 mmHg 97%
    13:00 -2°C° 1.1 mm 2 m/s 583 mmHg 97%
    14:00 -2°C° 0.8 mm 2 m/s 582 mmHg 97%
    15:00 -2°C° 0.8 mm 2 m/s 582 mmHg 98%
    16:00 -2°C° 0.8 mm 2 m/s 582 mmHg 98%
    17:00 -2°C° 1 mm 2 m/s 582 mmHg 98%
    18:00 -2°C° 1 mm 2 m/s 582 mmHg 98%
    19:00 -2°C° 1 mm 2 m/s 582 mmHg 98%
    20:00 -2°C° 2.1 mm 2 m/s 582 mmHg 98%
    21:00 0°C° 2.1 mm 1 m/s 582 mmHg 98%
    22:00 0°C° 2.1 mm 1 m/s 582 mmHg 98%
    23:00 0°C° 2.5 mm 1 m/s 582 mmHg 98%

    29 Octombrie, Luni

    Timp Temperatura Precipitaţii Vânt Presiune Umiditate
    00:00 0°C° 2.5 mm 1 m/s 582 mmHg 98%
    01:00 -1°C° 2.5 mm 1 m/s 582 mmHg 98%
    02:00 -1°C° 0.6 mm 1 m/s 582 mmHg 97%
    03:00 -1°C° 0.6 mm 1 m/s 581 mmHg 97%
    04:00 -1°C° 0.6 mm 1 m/s 581 mmHg 97%
    05:00 -1°C° 0.3 mm 1 m/s 581 mmHg 97%
    06:00 -1°C° 0.3 mm 1 m/s 581 mmHg 97%
    07:00 -1°C° 0.3 mm 1 m/s 581 mmHg 97%
    08:00 -2°C° 0.4 mm 2 m/s 581 mmHg 98%
    09:00 -2°C° 0.4 mm 2 m/s 582 mmHg 98%
    10:00 -1°C° 0.4 mm 2 m/s 582 mmHg 98%
    11:00 -1°C° 0.5 mm 2 m/s 582 mmHg 98%
    12:00 -1°C° 0.5 mm 2 m/s 581 mmHg 98%
    13:00 -1°C° 0.5 mm 2 m/s 581 mmHg 97%
    14:00 -1°C° 0.3 mm 2 m/s 581 mmHg 97%
    15:00 -1°C° 0.3 mm 2 m/s 581 mmHg 96%
    16:00 -2°C° 0.3 mm 2 m/s 581 mmHg 95%
    17:00 -2°C° 0.3 mm 2 m/s 581 mmHg 95%
    18:00 -3°C° 0.3 mm 2 m/s 581 mmHg 96%
    19:00 -4°C° 0.3 mm 2 m/s 581 mmHg 96%
    20:00 -4°C° 0.3 mm 2 m/s 581 mmHg 96%
    21:00 -5°C° 0.3 mm 2 m/s 581 mmHg 96%
    22:00 -3°C° 0.3 mm 1 m/s 581 mmHg 96%
    23:00 -5°C° 0.2 mm 2 m/s 581 mmHg 96%

    30 Octombrie, Marţi

    Timp Temperatura Precipitaţii Vânt Presiune Umiditate
    00:00 -5°C° 0.2 mm 2 m/s 581 mmHg 96%
    01:00 -6°C° 0.2 mm 2 m/s 581 mmHg 96%
    02:00 -6°C° 0.3 mm 2 m/s 581 mmHg 96%
    03:00 -6°C° 0.3 mm 2 m/s 581 mmHg 97%
    04:00 -4°C° 0.3 mm 1 m/s 581 mmHg 97%
    05:00 -4°C° 0.4 mm 1 m/s 582 mmHg 97%
    06:00 -6°C° 0.4 mm 1 m/s 582 mmHg 96%
    07:00 -6°C° 0.4 mm 1 m/s 582 mmHg 96%
    08:00 -4°C° 0.2 mm 1 m/s 583 mmHg 95%
    09:00 -3°C° 0.2 mm 1 m/s 583 mmHg 93%
    10:00 -2°C° 0.2 mm 1 m/s 584 mmHg 92%
    11:00 -2°C° 0.1 mm 1 m/s 584 mmHg 92%
    12:00 -1°C° 0.1 mm 1 m/s 584 mmHg 92%
    13:00 -3°C° 0.1 mm 2 m/s 585 mmHg 92%
    14:00 -3°C° 0.1 mm 2 m/s 585 mmHg 92%
    15:00 -1°C° 0.1 mm 1 m/s 585 mmHg 92%
    16:00 -1°C° 0.1 mm 1 m/s 585 mmHg 93%
    17:00 -2°C° 0.1 mm 1 m/s 585 mmHg 94%
    18:00 -3°C° 0.1 mm 1 m/s 585 mmHg 94%
    19:00 -7°C° 0.1 mm 2 m/s 585 mmHg 95%
    20:00 -7°C° 0 mm 2 m/s 586 mmHg 95%
    21:00 -7°C° 0 mm 2 m/s 586 mmHg 94%
    22:00 -8°C° 0 mm 2 m/s 586 mmHg 94%
    23:00 -8°C° 0 mm 2 m/s 586 mmHg 93%
    Arată mai mult